Home > Weather > Ceuta > Past weeks

Flag for Spain Past Weather in Ceuta, Ceuta, Spain — Yesterday and Last 2 Weeks

Now
75 °F

Passing clouds.


Feels Like: 74 °F
Forecast: 72 / 85 °F
Wind: 15 mph from East

Location: Gibraltar Airport

Current Time: Jul 29, 2016 at 6:12:07 AM

Latest Report: Jul 29, 2016 at 4:50 AM


Visibility: N/A

Pressure: 29.95 "Hg

Humidity: 94%

Dew Point: 73 °F

Location of CeutaLocation

Past Weather in Ceuta — Graph

°F

Ceuta Temperature Yesterday

Maximum temperature yesterday: 81 °F (at 5:50 PM)
Minimum temperature yesterday: 70 °F (at 4:50 AM)
Average temperature yesterday: 76 °F

High & Low Weather Summary for the Past Weeks

 TemperatureHumidityPressure
High91 °F (Jul 21, 4:50 PM)100% (Jul 28, 4:50 AM)30.12 "Hg (Jul 28, 4:50 AM)
Low68 °F (Jul 27, 7:50 AM)34% (Jul 21, 4:50 PM)29.89 "Hg (Jul 21, 6:50 PM)
Average77 °F76%30.03 "Hg
* Reported Jul 14 4:50 AM — Jul 29 4:50 AM, Ceuta, Weather by CustomWeather, © 2016

Note: Actual official high and low records may vary slightly from our data, if they occured in-between our weather recording intervals... More about our weather records

Advertising

Ceuta Weather History for the Previous 24 Hours

Scroll right to see more
 ConditionsComfort  
Time TempWeatherWind HumidityBarometerVisibility
4:50 AM
Fri, Jul 29
75 °FPassing clouds.15 mph94%29.95 "HgN/A
3:50 AM75 °FClear.10 mph94%29.98 "HgN/A
2:50 AM75 °FClear.12 mph94%29.98 "Hg6 mi
1:50 AM77 °FClear.16 mph89%30.01 "HgN/A
12:50 AM77 °FClear.17 mph89%30.01 "HgN/A
11:50 PM
Thu, Jul 28
77 °FPassing clouds.13 mph83%30.01 "HgN/A
10:50 PM77 °FHaze.10 mph89%30.01 "Hg6 mi
9:50 PM77 °FHaze.9 mph89%29.98 "Hg6 mi
8:50 PM79 °FHaze.10 mph79%29.98 "Hg6 mi
7:50 PM79 °FHaze.10 mph79%29.98 "Hg6 mi
6:50 PM81 °FHaze.8 mph74%29.98 "Hg6 mi
5:50 PM81 °FPassing clouds.12 mph74%29.98 "HgN/A
4:50 PM79 °FPassing clouds.12 mph84%30.01 "HgN/A
3:50 PM79 °FPassing clouds.12 mph79%30.04 "HgN/A
2:50 PM79 °FPassing clouds.12 mph79%30.04 "HgN/A
1:50 PM77 °FHaze.12 mph79%30.04 "Hg6 mi
12:50 PM77 °FHaze.12 mph79%30.04 "Hg6 mi
11:50 AM75 °FScattered clouds.9 mph83%30.04 "Hg6 mi
10:50 AM73 °FFog.9 mph83%30.04 "Hg3 mi
9:50 AM72 °FFog.2 mph88%30.01 "Hg1 mi
8:50 AM72 °FLight fog.2 mph88%30.01 "Hg4 mi
7:50 AM72 °FHaze.5 mph88%30.01 "HgN/A
6:50 AM73 °FPassing clouds.2 mph78%30.01 "HgN/A
Weather by CustomWeather, © 2016

See weather overviewHow to use our weather pages